Theta_e
321 323 323 322 320 320 319 319 320 321 320 320 321 321 321 321 321 322 322 321 320 321 324 322 320 320 321 324 326 327 326 324 319 317 316 316 316 316 315 316 315 315 314 312
320 322 320 320 320 320 320 321 321 321 320 320 322 322 321 320 321 321 321 321 322 321 320 319 320 320 320 320 319 318 317 316 315 315 315 315 314 315 315 315 314 312 311 310
322 321 318 320 321 321 322 321 323 322 322 322 322 323 321 320 319 320 320 320 320 319 318 318 318 319 319 318 317 316 316 316 314 312 314 314 314 314 314 313 313 312 311 309
321 320 320 321 322 322 323 321 321 322 322 323 323 324 323 321 320 320 320 319 319 318 318 318 318 318 318 318 317 316 315 315 314 312 313 313 313 313 313 312 311 310 308 307
321 321 322 322 321 321 323 322 322 322 323 323 323 322 324 321 321 320 320 319 318 318 318 318 318 317 317 317 317 316 315 315 314 314 312 312 312 312 311 310 309 307 306 305
321 320 322 322 321 320 321 323 323 324 325 326 325 324 326 324 322 320 319 319 319 318 318 317 317 317 317 317 317 316 315 314 314 313 312 311 310 310 309 308 307 306 305 304
322 322 322 321 323 323 323 324 328 328 328 328 323 321 325 321 321 320 319 319 319 319 319 318 317 317 316 316 316 315 315 315 313 312 311 311 309 309 308 306 305 303 302 301
323 326 322 321 322 323 322 324 328 325 326 324 323 321 324 321 319 319 318 318 318 318 317 317 316 316 316 315 315 315 314 314 313 313 312 310 309 307 305 304 302 301 300 300
323 324 321 321 321 322 323 324 321 325 322 326 322 322 322 321 320 319 318 318 318 317 316 316 316 315 315 315 314 314 313 312 311 311 310 308 306 305 303 301 300 299 300 300
321 325 320 320 321 321 322 321 325 323 326 320 319 318 322 322 321 319 318 318 317 317 316 316 315 315 314 314 313 312 311 311 310 308 307 306 305 303 300 299 299 299 299 299
319 320 321 319 322 322 323 323 321 319 321 322 320 319 319 319 319 318 317 316 316 316 316 315 314 314 313 313 312 311 309 308 307 306 304 303 302 301 299 299 299 298 298 297
319 320 320 318 319 320 320 321 320 320 318 319 320 320 318 318 317 316 316 316 316 315 315 314 314 313 313 312 310 308 307 305 304 303 302 301 300 300 299 299 297 297 296 297
320 321 319 319 321 320 320 319 318 318 318 318 324 320 317 317 317 316 315 316 315 314 314 313 313 312 311 310 307 305 304 304 303 301 300 299 299 299 298 297 295 295 295 295
318 319 318 319 317 316 316 316 316 317 320 320 319 318 318 317 317 315 315 315 315 313 313 312 311 310 309 306 304 304 303 303 301 299 299 299 299 297 296 296 295 294 293 292
319 319 319 318 316 315 316 316 316 316 316 318 318 318 317 317 316 315 315 314 313 313 312 310 308 306 304 303 302 303 302 300 300 299 299 298 297 296 295 295 293 292 291 290
318 320 318 317 316 315 316 315 315 316 316 317 317 317 316 315 315 315 313 313 312 311 309 307 304 303 302 302 302 302 301 300 299 298 297 297 296 295 295 293 292 290 290 289
319 320 318 320 318 317 320 318 315 316 316 316 317 316 315 315 314 313 312 313 311 308 306 306 303 303 302 301 302 302 300 299 298 297 297 296 296 295 293 292 290 290 289 289
320 319 319 321 317 323 318 316 316 315 315 315 316 315 315 314 313 312 311 310 307 306 305 304 303 302 301 300 301 301 300 299 298 298 297 296 295 294 293 292 290 290 289 289
317 319 317 320 318 316 316 315 315 315 316 315 316 315 314 313 312 311 308 306 306 305 304 302 301 300 299 300 300 300 300 299 298 297 296 295 295 294 292 291 290 289 289 289
315 317 320 317 318 319 317 315 313 314 317 315 315 313 312 311 313 311 308 306 305 303 301 300 300 299 299 298 298 298 297 297 297 297 295 294 294 293 292 290 290 289 289 288
315 315 320 317 318 316 315 314 313 316 318 314 313 312 310 309 308 306 306 304 302 301 300 300 299 299 298 297 296 296 296 296 296 296 295 295 294 293 291 290 290 289 289 288
316 318 315 316 317 316 313 313 316 315 314 313 310 308 307 308 306 305 303 301 300 300 300 299 298 297 297 295 295 295 295 295 296 296 295 294 293 292 290 290 289 289 288 288
316 316 317 317 317 314 313 313 314 314 313 311 308 308 307 305 304 302 300 300 299 299 298 297 296 296 295 294 294 293 294 294 294 293 292 293 292 291 290 290 289 288 287 286
315 314 316 316 314 313 313 313 313 312 310 308 306 306 303 303 301 299 299 299 298 297 296 295 295 295 294 294 293 293 293 292 292 292 292 291 291 290 289 289 288 287 286 285
316 315 316 317 315 313 313 312 311 310 308 307 305 303 302 300 299 299 298 297 296 295 295 295 295 294 294 294 293 292 292 291 290 290 289 289 290 289 289 288 287 286 285 284
314 315 318 317 314 314 313 311 309 309 307 304 303 301 300 300 298 297 296 295 295 295 294 294 294 294 294 293 292 291 291 289 288 288 289 289 289 288 287 287 286 285 284 283
Wind_Speed
6 11 4 10 7 8 5 4 5 5 5 6 5 7 3 4 4 6 7 6 7 9 9 5 4 6 6 5 5 5 6 9 3 3 4 6 7 10 11 11 13 12 13 18
9 5 5 2 2 3 4 5 1 1 2 6 5 5 5 7 6 7 8 10 11 12 12 11 12 12 10 9 7 5 3 2 1 3 3 7 10 9 11 11 13 14 16 21
9 9 2 4 1 7 3 7 6 10 8 10 9 9 10 8 12 12 13 14 14 14 12 10 11 10 9 8 7 6 4 4 2 1 5 6 9 12 15 16 18 17 20 21
5 4 0 2 2 8 8 4 8 10 8 6 11 3 9 12 10 11 13 12 11 9 8 7 7 7 8 8 7 6 4 3 5 7 6 13 12 15 17 17 18 20 21 22
5 3 0 1 5 6 6 8 8 8 9 9 10 8 10 10 11 10 9 8 8 7 6 7 7 7 6 6 5 4 4 6 7 8 14 13 12 14 16 17 20 22 20 21
8 3 4 6 4 4 7 8 6 6 4 5 3 7 9 7 9 5 8 6 5 5 5 5 4 4 3 4 4 6 7 9 11 11 11 13 14 15 18 19 21 20 22 23
7 4 4 6 9 6 8 7 4 3 4 1 4 7 9 8 7 7 7 6 5 6 5 3 1 1 2 5 7 9 11 13 14 14 15 16 16 17 18 20 21 25 26 27
4 7 5 6 5 6 5 7 3 4 3 5 8 5 8 10 9 7 6 5 5 5 4 3 3 6 8 10 11 12 14 16 17 18 18 18 17 17 18 19 24 24 25 26
3 4 5 5 5 6 3 4 3 1 1 3 5 6 9 10 9 6 3 0 2 3 4 5 8 9 12 13 12 12 14 17 19 19 19 18 18 18 19 21 23 23 23 22
3 2 1 3 4 4 7 3 3 1 3 4 3 10 7 10 8 6 4 3 7 8 9 10 12 13 13 13 12 13 17 18 18 17 17 18 20 20 22 22 22 23 21 21
6 3 5 3 2 8 2 1 3 4 3 4 5 5 8 5 4 4 7 10 11 11 12 14 14 13 14 14 15 18 18 18 17 16 17 19 20 19 19 21 20 20 18 18
6 2 2 4 4 3 3 4 4 2 3 3 4 8 7 5 3 6 11 13 7 12 14 13 13 12 15 16 18 20 18 16 16 18 20 22 20 20 21 19 20 18 19 18
6 1 3 5 6 4 4 1 2 1 2 10 7 6 3 4 10 10 13 11 9 10 16 15 14 20 18 18 18 15 15 16 18 21 22 21 21 20 20 18 17 17 18 19
3 1 3 5 8 6 8 9 9 10 7 11 12 17 14 11 11 16 16 11 11 15 14 13 16 20 18 16 15 16 18 18 20 21 20 21 20 18 16 15 15 18 19 20
3 2 4 9 11 11 12 13 14 15 15 14 16 17 16 12 11 13 9 13 16 18 18 16 20 17 14 15 17 19 18 20 22 21 21 22 19 17 15 16 17 18 19 20
2 1 3 4 7 11 15 17 18 16 11 13 14 13 10 10 10 11 18 21 18 14 14 18 17 17 17 18 21 20 20 21 22 22 23 22 18 15 16 16 17 19 19 19
1 0 2 4 10 13 6 3 3 7 8 8 9 12 8 11 15 17 16 13 11 10 17 17 17 18 20 21 22 22 22 23 24 25 24 21 17 17 16 17 19 19 19 19
4 1 2 3 5 3 6 11 14 10 9 10 9 9 11 16 19 14 7 9 9 16 15 17 19 21 22 25 26 25 26 27 29 28 25 20 18 19 18 18 18 19 19 20
2 3 2 2 5 14 12 4 6 9 13 11 6 9 17 23 18 3 4 10 15 13 17 19 20 23 26 27 29 29 28 30 31 29 24 19 19 17 17 18 18 19 20 21
4 2 3 3 3 4 3 2 4 7 11 5 8 17 19 18 10 8 16 17 15 16 19 22 24 26 27 29 29 30 32 32 32 29 23 20 19 18 15 16 18 19 21 21
3 2 5 6 5 8 8 2 4 5 3 12 12 13 9 7 8 16 15 15 16 19 23 24 26 28 28 29 30 31 32 33 31 27 20 20 18 14 13 15 18 20 22 22
7 6 4 4 4 6 3 6 3 7 20 10 1 6 10 10 13 11 14 17 20 23 26 27 28 28 28 28 29 31 33 32 28 20 17 17 12 11 13 16 19 20 21 19
4 7 4 8 5 12 9 16 12 8 7 4 6 7 10 11 12 15 17 20 23 26 29 29 28 28 27 29 30 32 31 27 25 26 18 11 11 12 15 16 19 20 17 16
6 12 6 8 7 16 17 17 3 2 2 4 7 8 9 11 14 17 21 24 27 28 29 28 27 28 29 30 31 29 25 22 17 18 16 13 12 13 14 15 17 15 15 17
9 9 9 13 20 19 12 4 7 9 4 6 5 7 11 12 18 22 25 27 28 28 27 27 27 28 29 30 29 26 19 15 18 15 14 13 12 12 13 13 12 14 14 20
15 15 10 10 15 3 9 7 9 6 4 3 6 9 12 18 24 26 26 26 27 27 28 28 29 29 30 27 25 18 14 16 15 15 11 11 12 11 12 10 11 15 17 19
Wind_Direction
219 248 19 36 355 350 18 294 290 78 79 289 216 260 50 8 150 155 191 195 187 186 126 131 130 94 91 96 114 146 179 215 213 250 267 271 281 283 289 288 298 307 293 300
219 80 69 44 350 305 276 290 81 116 147 295 208 202 102 80 65 94 118 125 128 126 123 120 93 86 88 94 98 103 100 85 58 306 316 306 295 296 296 303 289 304 294 306
21 86 136 282 38 321 97 333 15 318 312 263 261 204 159 114 103 92 90 103 116 121 123 104 86 84 84 85 92 101 94 63 18 331 321 316 315 304 306 291 300 298 307 309
77 98 212 276 61 337 300 35 308 284 271 267 204 205 157 150 126 113 110 105 109 114 102 93 89 91 94 92 90 82 75 37 4 328 336 326 325 315 304 304 302 301 308 308
105 145 349 325 10 333 22 322 291 280 262 278 208 261 116 167 154 137 118 104 100 89 85 80 86 91 90 82 73 54 10 344 339 336 323 323 317 308 304 303 303 308 309 306
106 102 23 8 303 282 297 258 241 253 248 241 77 288 153 145 91 127 119 99 88 83 84 83 88 86 66 43 18 356 341 329 323 326 324 321 317 310 310 310 312 310 309 312
166 87 112 356 294 195 308 283 259 209 194 260 75 282 56 84 89 82 119 109 82 74 73 70 63 2 319 324 331 333 324 320 317 316 315 316 313 313 314 316 314 316 315 314
220 166 6 7 17 336 3 328 6 301 342 320 154 265 105 110 108 112 105 99 100 84 73 40 344 318 315 318 318 317 321 318 315 313 311 311 311 314 315 314 315 319 318 317
295 102 119 49 19 326 25 42 357 185 119 249 282 126 162 148 138 142 117 79 48 1 338 332 330 326 319 317 316 311 320 320 316 311 311 312 314 316 316 321 325 324 324 323
54 186 64 86 274 78 355 37 263 38 309 297 322 304 59 167 175 132 225 310 317 309 316 323 319 319 316 315 322 318 317 313 312 311 310 311 315 318 324 326 326 326 322 317
359 311 110 252 20 360 148 160 337 312 327 296 302 321 21 13 22 346 326 317 313 312 313 313 318 311 308 307 310 313 315 313 313 311 313 315 314 315 318 318 315 309 313 313
34 2 276 24 72 338 333 353 321 301 299 247 292 284 54 72 346 295 286 300 326 302 305 318 321 319 317 309 312 312 313 314 314 315 314 313 312 312 314 308 311 314 316 312
15 76 284 186 161 177 278 46 312 336 287 253 260 270 175 295 308 313 338 342 318 345 335 328 325 320 314 310 309 310 312 312 313 312 312 311 311 310 309 305 312 315 314 314
316 325 299 309 323 320 291 273 270 255 255 270 275 287 297 322 334 352 344 332 345 330 321 320 316 312 306 306 307 305 308 308 312 312 312 312 311 312 311 306 312 313 313 312
324 268 330 299 303 305 296 286 276 267 266 263 275 285 307 334 357 337 324 328 323 322 322 323 315 313 310 309 309 308 307 312 314 312 312 312 309 306 304 309 312 314 312 311
45 131 333 273 296 311 306 289 279 265 276 288 296 291 3 330 323 328 331 317 321 329 317 314 313 309 310 310 309 307 307 312 316 312 310 310 302 300 305 308 313 313 312 312
321 200 348 279 337 323 284 258 334 303 300 264 276 295 313 330 359 340 325 314 316 304 309 305 308 308 309 309 309 306 307 311 312 308 304 306 297 296 302 306 312 312 313 313
143 126 60 297 311 309 42 310 299 280 292 291 308 347 10 348 332 338 326 329 318 313 310 307 311 311 310 309 308 304 303 307 309 308 307 297 289 290 298 305 309 313 314 313
218 144 139 261 287 292 299 55 7 334 306 312 357 359 330 332 322 323 356 329 315 305 307 310 311 311 311 312 311 309 307 306 306 306 307 303 289 284 294 304 309 313 313 314
82 102 241 168 258 269 54 50 357 315 278 51 332 335 333 326 317 302 328 319 315 311 309 311 312 311 313 314 312 310 308 309 305 306 301 295 283 284 288 300 309 312 313 313
120 202 223 218 248 267 291 28 307 286 348 325 327 326 328 301 280 302 312 311 307 308 310 314 313 314 314 315 314 312 310 309 309 308 300 293 279 284 295 300 309 312 314 315
182 178 202 212 252 277 174 203 234 315 306 336 343 301 270 302 303 298 307 311 311 312 316 316 315 313 315 317 318 315 312 314 316 315 302 284 300 294 294 302 309 312 315 314
247 211 238 192 237 295 282 286 298 306 324 328 311 312 305 297 301 310 311 314 316 315 316 315 314 315 317 319 320 317 317 314 310 309 315 302 295 285 296 305 311 315 313 312
270 256 227 280 264 294 295 307 333 32 305 240 246 280 300 301 310 311 316 317 316 316 316 316 316 316 317 320 320 318 317 317 315 316 314 311 303 300 303 306 311 312 312 311
253 283 243 258 286 310 288 71 3 309 260 260 278 295 302 305 311 316 316 316 316 315 317 317 314 314 316 318 319 317 313 317 317 316 314 310 304 304 302 308 312 310 307 310
251 257 260 268 299 280 286 298 306 255 241 275 304 310 307 311 314 314 313 315 316 317 315 314 315 315 316 317 315 315 308 315 312 317 320 306 304 296 303 309 310 313 313 318